Flag for United Kingdom Weather past 2 weeks in Cardiff, Wales, United Kingdom

Now
48 °F

Cool.


Feels Like: 47 °F
Forecast: 52 / 64 °F
Wind: 3 mph from North

Location: Wales Airport

Current Time: Aug 21, 2014 at 4:15:05 AM

Latest Report: Aug 21, 2014 at 3:50 AM


Visibility: N/A

Pressure: 30.04 "Hg

Humidity: 82%

Dew point: 43 °F

Location of CardiffLocation

Historic Weather in Cardiff — Graph

°F

Cardiff temperature yesterday

Maximum temperature yesterday: 63 °F (at 12:20 PM)
Minimum temperature yesterday: 46 °F (at 1:20 AM)
Average temperature yesterday: 54 °F

Past Weeks' High & Low Weather Summary

 TemperatureHumidityPressure
High70 °F (Aug 6, 12:50 PM)100% (Aug 7, 6:20 AM)30.21 "Hg (Aug 7, 6:20 AM)
Low46 °F (Aug 20, 1:20 AM)45% (Aug 20, 12:20 PM)29.30 "Hg (Aug 10, 9:20 AM)
Average59 °F77%29.86 "Hg
* Reported Aug 6 3:20 AM — Aug 21 3:20 AM, Cardiff, Weather by CustomWeather, © 2014

Note: Actual official high and low records may vary slightly from our data, if they occured in-between our weather recording intervals... More about our weather records

Advertising

Cardiff weather history for previous 24 hours

 ConditionsComfort  
Time TempWeatherWind HumidityBarometerVisibility
3:20 AM
Aug 21
48 °FClear.6 mph82%30.04 "Hg10 mi
2:50 AM46 °FClear.5 mph87%30.07 "Hg10 mi
2:20 AM48 °FClear.5 mph82%30.07 "Hg10 mi
1:50 AM48 °FClear.7 mph82%30.07 "Hg10 mi
1:20 AM46 °FClear.8 mph87%30.09 "Hg10 mi
12:50 AM48 °FClear.8 mph82%30.09 "Hg10 mi
12:20 AM48 °FClear.7 mph82%30.09 "Hg10 mi
11:50 PM
Aug 20
48 °FClear.7 mph82%30.09 "Hg10 mi
11:20 PM48 °FClear.7 mph82%30.09 "Hg10 mi
10:50 PM48 °FPassing clouds.9 mph82%30.09 "HgN/A
10:20 PM50 °FPassing clouds.8 mph76%30.09 "HgN/A
9:50 PM50 °FPassing clouds.6 mph76%30.09 "HgN/A
9:20 PM54 °FPassing clouds.6 mph67%30.09 "HgN/A
8:50 PM52 °FPassing clouds.7 mph72%30.07 "HgN/A
8:20 PM54 °FPassing clouds.8 mph67%30.07 "HgN/A
7:50 PM57 °FPassing clouds.8 mph59%30.07 "HgN/A
7:20 PM59 °FPassing clouds.12 mph55%30.07 "HgN/A
6:50 PM59 °FPassing clouds.12 mph55%30.07 "HgN/A
6:20 PM59 °FPassing clouds.13 mph55%30.07 "HgN/A
5:50 PM61 °FPassing clouds.15 mph55%30.07 "HgN/A
5:20 PM59 °FPassing clouds.12 mph59%30.07 "HgN/A
4:50 PM61 °FPassing clouds.14 mph52%30.07 "HgN/A
4:20 PM63 °FScattered clouds.15 mph52%30.07 "HgN/A
3:50 PM63 °FScattered clouds.15 mph56%30.07 "HgN/A
3:20 PM63 °FScattered clouds.15 mph52%30.07 "HgN/A
2:50 PM63 °FScattered clouds.14 mph49%30.07 "HgN/A
2:20 PM63 °FPassing clouds.14 mph49%30.07 "HgN/A
1:50 PM63 °FScattered clouds.13 mph52%30.07 "HgN/A
1:20 PM61 °FScattered clouds.13 mph55%30.07 "HgN/A
12:50 PM61 °FScattered clouds.13 mph52%30.07 "HgN/A
12:20 PM63 °FScattered clouds.12 mph45%30.07 "HgN/A
11:50 AM61 °FScattered clouds.10 mph52%30.07 "HgN/A
11:20 AM61 °FScattered clouds.10 mph55%30.07 "HgN/A
10:50 AM59 °FScattered clouds.12 mph63%30.07 "HgN/A
10:20 AM59 °FPassing clouds.9 mph63%30.07 "HgN/A
9:50 AM59 °FPassing clouds.8 mph63%30.07 "HgN/A
9:20 AM57 °FPassing clouds.7 mph72%30.07 "HgN/A
8:50 AM54 °FCool.7 mph82%30.07 "HgN/A
8:20 AM54 °FPassing clouds.8 mph77%30.07 "HgN/A
7:50 AM50 °FPassing clouds.7 mph88%30.07 "HgN/A
7:20 AM50 °FPassing clouds.7 mph88%30.07 "HgN/A
6:50 AM48 °FPassing clouds.6 mph87%30.04 "HgN/A
6:20 AM48 °FPassing clouds.7 mph87%30.04 "HgN/A
5:50 AM50 °FCool.7 mph82%30.04 "HgN/A
5:20 AM50 °FClear.6 mph82%30.04 "Hg10 mi
4:50 AM50 °FClear.9 mph82%30.07 "Hg10 mi
4:20 AM50 °FClear.9 mph82%30.07 "Hg10 mi
Weather by CustomWeather, © 2014

See weather overviewHow to use our weather pages